Location: Nairn
(57.5833°N, 3.8667°W)
Time: 05:08:40
(UTC+00:00)

Altair - Pass Details

Date: 28 November 2020
Orbit: 1501 x 1682 km, 47.2° (Epoch: 17 January)

Event Time Altitude Azimuth Distance (km) Brightness Sun altitude
Rises 20:38:18 0° 210° (SSW) 4,706 10.1 -38.4°
Reaches altitude 10° 20:41:57 10° 199° (SSW) 3,701 9.4 -38.8°
Enters shadow 20:42:15 11° 198° (SSW) 3,626 9.4 -38.9°
